Tracking 19969 objects as of 13-Nov-2019
Live streaming from Space Station
objects crossing your sky now
Track the group of recently launched Starlink satellites

ARIANE 3 DEB

Track ARIANE 3 DEB now!


NORAD ID: 26807
Int'l Code: 1988-081H
Perigee: 1,084.8 km
Apogee: 36,521.8 km
Inclination: 6.5 °
Period: 662.5 minutes
Semi major axis: 25174 km
RCS: 0.4361 m2 (medium)
Launch date: September 8, 1988
Source: France (FR)
Launch site: FRENCH GUIANA (FRGUI)

Note: This is SATELLITE DEBRIS
aabbcc
Your satellite tracking list
Your tracking list is empty




NASA's NSSDC Master Catalog

Two Line Element Set (TLE):
1 26807U 88081H   19315.19283586 -.00000007  00000-0  00000+0 0  9996
2 26807   6.4845  29.2530 7038316 304.8845   8.6902  2.17353444161021
Source of the keplerian elements: AFSPC